Regional Weather Roundup
Issued by NWS Sterling, VA

Home | Current Version | Previous Version | Text Only | Print | Product List | Glossary On
Versions: 1 2 3 4 5 6 7 8 9 10 11 12 13 14 15 16 17 18 19 20 21 22 23 24 25 26 27
000
ASUS41 KLWX 261411
RWRLWX

REGIONAL WEATHER ROUNDUP
NATIONAL WEATHER SERVICE BALTIMORE MD/WASHINGTON DC
1000 AM EDT TUE SEP 26 2017

Note: "FAIR" indicates few or no clouds below 12,000 feet
with no significant weather and/or obstructions to visibility.
 TC=TEMPERATURE CELSIUS

 * =Non NWS site. Station does not report precipitation (e.g. rain,
    snow, etc.), thunder, or fog.

DCZ001-MDZ009-015-VAZ040>042-051-053>054-261500-
WASHINGTON METRO

CITY           SKY/WX    TMP DP  RH WIND       PRES   REMARKS
WASHINGTON NAT PTSUNNY   73  68  84 N10       30.03S
DULLES         PTSUNNY   75  65  70 NE9       30.04S
ANDREWS AFB    CLOUDY    69  65  87 NE7       30.02S
FT BELVOIR     CLOUDY    73  66  78 CALM      30.03R
QUANTICO       CLOUDY    73  69  87 NE8       30.03S
COLLEGE PARK*  CLOUDY    70  66  86 NE5       30.04R
LEESBURG*      MOSUNNY   77  70  78 NE8       30.06R
MANASSAS*      MOSUNNY   74  65  73 N10       30.04S
GAITHERSBURG*  SUNNY     74  66  76 VRB5      30.06R

$$

MDZ006>007-011-014-261500-
BALTIMORE METRO

CITY           SKY/WX    TMP DP  RH WIND       PRES   REMARKS
BWI AIRPORT    PTSUNNY   72  67  84 NE8       30.03S
MD SCIENCE CTR   N/A     75  67  76 MISG      30.04R
MARTIN STATE   PTSUNNY   73  70  88 NE5       30.05S
ANNAPOLIS      CLOUDY    72  70  93 NE8       30.03R
FORT MEADE*    CLOUDY    70  64  83 NE7       30.06S

$$

MDZ012-015-019>023-261500-
MARYLAND EASTERN SHORE

CITY           SKY/WX    TMP DP  RH WIND       PRES   REMARKS
OCEAN CITY     CLOUDY    72  70  93 NE13G18   29.99S
SALISBURY      CLOUDY    73  70  90 NE10      29.99S
CAMBRIDGE*     FOG       72  68  88 NE7G14    30.00R VSB 1/4
EASTON*        CLOUDY    72  68  88 NE10      30.05S

$$

MDZ017>025-261500-
SOUTHERN MARYLAND

CITY           SKY/WX    TMP DP  RH WIND       PRES   REMARKS
PATUXENT RIVER CLOUDY    71  68  90 NE10      30.00R
ST INIGOES     CLOUDY    73  68  84 NE5       29.98R
LEONARDTOWN*   CLOUDY    70  66  88 NE5       30.02R

$$

MDZ003>005-261500-
NORTH CENTRAL MARYLAND

CITY           SKY/WX    TMP DP  RH WIND       PRES   REMARKS
FREDERICK*     MOSUNNY   77  73  88 NE7       30.07S
HAGERSTOWN APT MOSUNNY   74  67  78 NW5       30.06S HAZE
WESTMINSTER*   MOSUNNY   73  66  78 NE6       30.06S

$$

MDZ501>502-261500-
WESTERN MARYLAND

CITY           SKY/WX    TMP DP  RH WIND       PRES   REMARKS
OAKLAND*       SUNNY     70  63  78 E7        30.13R
CUMBERLAND*    SUNNY     72  66  83 CALM      30.11S

$$

VAZ025>031-261500-
SHENANDOAH VALLEY

CITY           SKY/WX    TMP DP  RH WIND       PRES   REMARKS
WINCHESTER*    MOSUNNY   72  64  78 E6        30.05S
FRONT ROYAL*   PTSUNNY   72  66  83 CALM      30.05S
LURAY*         PTSUNNY   73  66  78 NE6       30.05F
NEW MARKET*    PTSUNNY   71  65  83 N3        30.05F
STAUNTON*      MOSUNNY   72  66  80 CALM      30.08S
WAYNESBORO*    SUNNY     72  67  86 NW6       30.07S

$$

WVZ021-048>050-054>055-261500-
EASTERN WEST VIRGINIA PANHANDLE

CITY           SKY/WX    TMP DP  RH WIND       PRES   REMARKS
MARTINSBURG    MOSUNNY   76  67  73 NE9       30.04S
PETERSBURG*    MOSUNNY   74  66  78 CALM      30.07F

$$

VAZ036>039-050-261500-
CENTRAL FOOTHILLS

CITY           SKY/WX    TMP DP  RH WIND       PRES   REMARKS
CHARLOTTESVILL SUNNY     78  65  63 NE10      30.03R
CULPEPER*      MOSUNNY   75  65  71 N9        30.04F
ORANGE*        MOSUNNY   72  64  78 NE8       30.03S
GORDONSVILLE*  MOSUNNY   74  66  76 E10       30.02S
WARRENTON*     CLOUDY    75  62  64 NE8       30.03F

$$

VAZ055>057-261500-
NORTH AND CENTRAL PIEDMONT

CITY           SKY/WX    TMP DP  RH WIND       PRES   REMARKS
FREDERICKSBRG* CLOUDY    71  70  98 N7        30.01S
STAFFORD*      CLOUDY    69  69  99 CALM      30.06F

$$

NCZ024-NYZ072-PAZ021-071-VAZ022-071-261500-
OTHER REGIONAL OBSERVATIONS

CITY           SKY/WX    TMP DP  RH WIND       PRES   REMARKS
NEW YORK CITY  CLOUDY    72  67  84 CALM      30.09R
PHILADELPHIA   PTSUNNY   71  66  84 E9        30.05S
PITTSBURGH     MOSUNNY   74  67  78 CALM      30.07S
ROANOKE        MOSUNNY   76  66  71 N5        30.06S
RICHMOND       CLOUDY    72  68  87 N13       29.98R
RALEIGH        CLOUDY    71  68  90 N7        29.95S

$$

ANZ530>537-261500-
MARINE OBSERVATIONS

STATION/POSITION TIME  TEMP    WIND        PRES
                       AIR SEA DIR/SP/G
                 (UTC) (F)     (DEG/KT/KT) (MB)
THOMAS PT LIGHT  1400   69 77   20/ 10/ 11   N/A
BALT KEY BRIDGE  1348   70      50/  8/ 10 1017.0R
COVE POINT       1348   70      40/ 12/ 15 1016.8R
LEWISETTA        1348   72 78   60/  7/ 11 1015.4R
SOLOMONS ISLAND  1336   71 77   20/  8/ 12 1015.4R
PINEY POINT      1348           50/  7/ 10   N/A

$$





USA.gov is the U.S. government's official web portal to all federal, state and local government web resources and services.